Location: Tamazert
(32.6352°N, 5.2072°W)
Time: 03:21:14
(UTC+00:00)

Vanguard 1 Rocket - Pass Details

Date: 10 October 2022
Orbit: 650 x 4225 km, 34.3° (Epoch: 05 December)

Event Time Altitude Azimuth Distance (km) Brightness Sun altitude
Rises 17:14:57 0° 237° (WSW) 8,157 13.8 7.3°
Reaches altitude 10° 17:20:20 10° 236° (SW) 7,312 13.6 6.2°
Maximum altitude 17:46:47 75° 156° (SSE) 3,888 10.6 0.7°
Drops below altitude 10° 18:04:57 10° 75° (ENE) 5,363 10.7 -3.1°
Enters shadow 18:07:12 - 74° (ENE) 5,802 10.8 -3.6°
Sets 18:08:11 0° 74° (ENE) 6,006 - -3.8°
